Regional Weather Roundup
Issued by NWS

Home | Current Version | Previous Version | Text Only | Print | Product List | Glossary On
Versions: 1 2 3 4 5 6 7 8 9 10 11 12 13 14 15 16 17 18 19 20 21 22 23 24 25 26 27 28 29 30 31 32 33 34 35 36 37 38 39 40 41 42 43 44 45 46 47 48 49 50
000
ASUS43 KOAX 252310
RWRNE

WEATHER ROUNDUP FOR NEBRASKA
NATIONAL WEATHER SERVICE OMAHA NE
600 PM CDT SUN JUN 25 2017

NOTES: SATELLITE DATA IS BEING USED TO AUGMENT CLOUD COVER ABOVE
       12000 FEET.
       "FAIR" INDICATES FEW OR NO CLOUDS BELOW 12,000 FEET WITH NO
       SIGNIFICANT WEATHER AND/OR OBSTRUCTIONS TO VISIBILITY.

  * THESE STATIONS DO NOT REPORT WEATHER SUCH AS RAIN...SNOW OR FOG.

NEZ001>004-019>022-054>056-260000-
NEBRASKA PANHANDLE

CITY           SKY/WX    TMP DP  RH WIND       PRES   REMARKS
SCOTTSBLUFF    SUNNY     78  42  27 SE8       30.24F
ALLIANCE       MOSUNNY   76  39  26 SW14      30.23F
CHADRON        SUNNY     82  37  20 W9        30.19F
GORDON         FAIR      76  41  29 S3        30.21F
KIMBALL        MOSUNNY   69  49  49 CALM      30.30F
SIDNEY         PTSUNNY   70  48  45 SE7       30.30F
$$

NEZ057>060-069>072-079>082-260000-
SOUTHWEST NEBRASKA

CITY           SKY/WX    TMP DP  RH WIND       PRES   REMARKS
NORTH PLATTE   MOSUNNY   77  45  32 S9        30.25F
IMPERIAL       CLOUDY    67  52  58 S14       30.28F
LEXINGTON      SUNNY     76  45  33 S12       30.26F
MCCOOK         MOSUNNY   69  53  56 SE9       30.27F
OGALLALA       SUNNY     76  44  31 S7        30.27S
$$

NEZ005>010-023>029-035>040-094-260000-
NORTH CENTRAL NEBRASKA

CITY           SKY/WX    TMP DP  RH WIND       PRES   REMARKS
VALENTINE      PTSUNNY   79  32  18 SE9       30.20F
AINSWORTH      MOSUNNY   75  38  26 S3        30.22F
BROKEN BOW     MOSUNNY   77  41  27 SE9       30.24F
O`NEILL        SUNNY     75  38  26 W6        30.24F
ORD            SUNNY     76  34  21 S7        30.22F
THEDFORD       CLOUDY    79  39  23 SE5G16    30.23F
$$

NEZ041-046>049-061>064-073>077-083>087-260000-
SOUTH CENTRAL NEBRASKA

CITY           SKY/WX    TMP DP  RH WIND       PRES   REMARKS
GRAND ISLAND   SUNNY     76  42  29 SE6       30.25F
AURORA         SUNNY     76  38  25 SW3       30.25F
HASTINGS       SUNNY     75  41  29 VRB6      30.27F
HEBRON         SUNNY     74  46  37 SW6       30.26F
HOLDREGE       SUNNY     70  45  40 S8        30.27F
KEARNEY *      SUNNY     75  43  31 S13       30.26F
YORK           SUNNY     75  39  27 CALM      30.24F
$$

NEZ011>018-030>034-042>045-260000-
NORTHEAST NEBRASKA

CITY           SKY/WX    TMP DP  RH WIND       PRES   REMARKS
NORFOLK        SUNNY     74  39  28 W3        30.23F
ALBION         SUNNY     77  32  19 SE3       30.24F
BLAIR          SUNNY     75  41  29 N8        30.23F
FREMONT        SUNNY     75  39  27 CALM      30.24F
TEKAMAH        SUNNY     76  37  24 N7        30.22F
WAYNE          SUNNY     74  39  28 CALM      30.24S
$$

NEZ050>053-065>068-078-088>093-260000-
SOUTHEAST NEBRASKA

CITY           SKY/WX    TMP DP  RH WIND       PRES   REMARKS
LINCOLN        SUNNY     79  42  26 NW8       30.24F
OMAHA EPPLEY   MOSUNNY   77  41  27 VRB3      30.23F
BEATRICE       SUNNY     77  42  28 SW5       30.24F
FALLS CITY     SUNNY     76  46  34 NW5       30.23F
NEBRASKA CITY  SUNNY     75  45  34 N7        30.24F
PLATTSMOUTH    SUNNY     74  38  26 NW12      30.24F
$$

NEZ044-045-051>053-067-260000-
OMAHA AREA

CITY           SKY/WX    TMP DP  RH WIND       PRES   REMARKS
OMAHA EPPLEY   MOSUNNY   77  41  27 VRB3      30.23F
BLAIR          SUNNY     75  41  29 N8        30.23F
FREMONT        SUNNY     75  39  27 CALM      30.24F
MILLARD        SUNNY     77  43  30 NW9       30.23F
OFFUTT AFB     SUNNY     76  42  29 NW5       30.22F
PLATTSMOUTH    SUNNY     74  38  26 NW12      30.24F
WAHOO          FAIR      77  37  23 N8        30.23F
$$



USA.gov is the U.S. government's official web portal to all federal, state and local government web resources and services.